User: anonymous   Login
Location: Unspecified
(0.0000°N, 0.0000°E)
Time: 01:41:11
(UTC+02:00)
Language:

ARIANE DEB (SPELDA) - Orbit

View from above orbital plane
View from above orbital plane
View from above satellite
View from above satellite

Ground track
Ground track

The orbit data is extracted from the following two-line orbital elements,

1 27402U 02015D   15183.85839218  .00002320  00000-0  20659-2 0  9996
2 27402 003.6001 078.3057 7107209 046.3641 118.9171 02.47049003116293
Epoch (UTC): 02 July 2015 20:36:05
Eccentricity: 0.7107209
inclination: 3.6001°
perigee height: 308 km
apogee height: 33163 km
right ascension of ascending node: 78.3057°
argument of perigee: 46.3641°
revolutions per day: 2.47049003
mean anomaly at epoch: 118.9171°
orbit number at epoch: 11629

The dashed part of the orbit path shows where the satellite is in the earth's shadow,  

DLR